DW0302 Weather Reports


Display with metric or nautical units.
time (UTC)temp
F
wind
direction
speed
MPH
gust
MPH
rain 1hr
in
rain 24hr
in
rain mn
in
humidity
%
barometer
mb
20190324200010 69 346 4.0 5.0 0.00 0.00 0.00 86 1015.2
20190324192025 73 270 3.0 3.0 0.00 0.00 0.00 99 1015.6
20190324191024 70 331 3.0 3.0 0.00 0.00 0.00 99 1015.9
20190324185951 67 338 3.0 4.0 0.00 0.00 0.00 99 1015.9
20190324184846 65 334 2.0 5.0 0.00 0.00 0.00 99 1015.9
20190324183710 66 302 4.0 5.0 0.00 0.00 0.00 99 1015.9
20190324182708 68 319 3.0 5.0 0.00 0.00 0.00 99 1015.9
20190324181707 71 325 2.0 5.0 0.00 0.00 0.00 99 1015.9
20190324175008 64 338 3.0 5.0 0.00 0.00 0.00 99 1015.9
20190324174007 64 338 3.0 5.0 0.00 0.00 0.00 99 1015.9
20190324173006 65 323 2.0 3.0 0.00 0.00 0.00 99 1015.9
20190324172005 66 331 3.0 4.0 0.00 0.00 0.00 99 1015.9
20190324074053 59 180 7.0 7.0 0.00 0.00 0.00 99 1013.2
20190324062826 58 180 5.0 5.0 0.00 0.00 0.00 99 1013.5
20190324061754 59 196 4.0 7.0 0.00 0.00 0.00 99 1013.9
20190324060721 59 189 4.0 6.0 0.00 0.00 0.00 99 1013.5
20190324055721 59 193 4.0 5.0 0.00 0.00 0.00 99 1013.9
20190324054720 60 195 3.0 5.0 0.00 0.00 0.00 99 1014.2
20190324053647 61 203 3.0 4.0 0.00 0.00 0.00 99 1014.2
20190324050916 61 212 2.0 5.0 0.00 0.00 0.00 99 1014.2
20190324045915 58 186 3.0 5.0 0.00 0.00 0.00 99 1014.2
20190324044843 58 190 4.0 7.0 0.00 0.00 0.00 99 1014.2
20190324043842 58 190 3.0 5.0 0.00 0.00 0.00 99 1014.2
20190324042738 59 158 5.0 6.0 0.00 0.00 0.00 99 1014.6
20190324041633 60 195 4.0 4.0 0.00 0.00 0.00 99 1014.2
20190324040632 71 180 1.0 2.0 0.00 0.00 0.00 99 1014.2
20190324035600 63 180 1.0 2.0 0.00 0.00 0.00 99 1013.9
20190324034528 58 180 1.0 1.0 0.00 0.00 0.00 99 1013.9
20190324033527 58 113 1.0 1.0 0.00 0.00 0.00 99 1013.9
20190324032526 59 97 1.0 1.0 0.00 0.00 0.00 99 1013.9
20190324031526 59 68 0.0 1.0 0.00 0.00 0.00 99 1013.9
20190324030525 60 68 1.0 2.0 0.00 0.00 0.00 99 1013.5
20190324025452 63 80 2.0 2.0 0.00 0.00 0.00 99 1013.5
20190324024451 65 68 0.0 2.0 0.00 0.00 0.00 99 1013.5
20190324023315 59 68 0.0 3.0 0.00 0.00 0.00 96 1013.2
20190324022314 60 104 2.0 2.0 0.00 0.00 0.00 96 1012.9
20190324021242 60 68 0.0 1.0 0.00 0.00 0.00 96 1012.5
20190324020210 60 68 0.0 1.0 0.00 0.00 0.00 98 1012.5
20190324015209 60 68 2.0 2.0 0.00 0.00 0.00 99 1012.5
20190324014104 62 90 0.0 1.0 0.00 0.00 0.00 99 1012.2
20190324013103 69 355 2.0 3.0 0.00 0.00 0.00 99 1011.5
20190324012103 60 23 1.0 4.0 0.00 0.00 0.00 89 1011.5
20190324010959 61 206 2.0 4.0 0.00 0.00 0.00 87 1011.9
20190324005958 61 302 1.0 3.0 0.00 0.00 0.00 85 1011.9
20190324004957 62 33 2.0 4.0 0.00 0.00 0.00 87 1011.9
20190324003957 62 351 1.0 2.0 0.00 0.00 0.00 85 1011.9
20190324002956 63 68 1.0 3.0 0.00 0.00 0.00 87 1011.9
20190324001923 68 135 2.0 2.0 0.00 0.00 0.00 99 1011.9
20190324000923 64 203 1.0 4.0 0.00 0.00 0.00 78 1011.9
20190323235922 64 338 4.0 6.0 0.00 0.00 0.00 74 1011.9
20190323234921 64 180 4.0 6.0 0.00 0.00 0.00 73 1010.8
20190323233921 65 152 5.0 6.0 0.00 0.00 0.00 70 1011.2
20190323232848 65 135 4.0 5.0 0.00 0.00 0.00 69 1011.2
20190323231847 66 126 2.0 4.0 0.00 0.00 0.00 69 1011.5
20190323230847 67 191 3.0 10.0 0.00 0.00 0.00 69 1011.5
20190323225846 71 143 11.0 11.0 0.00 0.00 0.00 60 1010.5
20190323224710 67 104 4.0 7.0 0.00 0.00 0.00 60 1010.5
20190323223709 68 155 6.0 9.0 0.00 0.00 0.00 62 1010.5
20190323222534 68 169 6.0 10.0 0.00 0.00 0.00 61 1011.2
20190323221533 69 171 8.0 11.0 0.00 0.00 0.00 58 1010.8
20190323220429 69 148 5.0 11.0 0.00 0.00 0.00 58 1011.2
20190323215428 69 180 5.0 7.0 0.00 0.00 0.00 54 1011.5
20190323214427 73 172 6.0 7.0 0.00 0.00 0.00 45 1011.9
20190323213354 69 138 4.0 7.0 0.00 0.00 0.00 52 1011.9
20190323212353 68 160 6.0 7.0 0.00 0.00 0.00 59 1011.9
20190323211353 68 164 5.0 10.0 0.00 0.00 0.00 59 1012.2
20190323210352 68 165 5.0 9.0 0.00 0.00 0.00 54 1012.2
20190323205351 69 169 8.0 10.0 0.00 0.00 0.00 53 1012.5
20190323204246 70 172 9.0 11.0 0.00 0.00 0.00 52 1012.2
20190323203245 72 158 7.0 7.0 0.00 0.00 0.00 42 1012.2
20190323202245 70 116 5.0 10.0 0.00 0.00 0.00 40 1012.2
20190323201212 67 166 9.0 11.0 0.00 0.00 0.00 61 1012.5